DW0542 Weather Reports


time (UTC)temp
F
wind
direction
speed
knots
gust
knots
rain 1hr
in
rain 24hr
in
rain mn
in
humidity
%
barometer
mb
20260508161531 54 295 4.3 11.3 0.00 0.00 0.00 50 1010.2
20260508160023 54 206 5.2 13.9 0.00 0.00 0.00 50 1010.3
20260508154523 53 299 5.2 12.2 0.00 0.00 0.00 52 1010.3
20260508153023 53 310 7.0 13.0 0.00 0.00 0.00 55 1010.4
20260508151552 53 271 5.2 11.3 0.00 0.00 0.00 52 1010.5
20260508150054 53 247 1.7 10.4 0.00 0.00 0.00 51 1010.6
20260508144554 52 280 6.1 13.0 0.00 0.00 0.00 55 1010.6
20260508143053 52 265 3.5 10.4 0.00 0.00 0.00 52 1010.7
20260508141555 51 293 6.1 13.9 0.00 0.00 0.00 59 1010.8
20260508140045 51 290 5.2 12.2 0.00 0.00 0.00 53 1010.9
20260508134555 50 308 5.2 10.4 0.00 0.00 0.00 56 1010.9
20260508133042 50 259 7.0 14.8 0.00 0.00 0.00 54 1011.2
20260508131541 50 280 8.7 12.2 0.00 0.00 0.00 54 1011.2
20260508124511 49 272 7.0 12.2 0.00 0.00 0.00 53 1011.2
20260508123008 49 265 1.7 8.7 0.00 0.00 0.00 55 1011.1
20260508121506 48 295 4.3 10.4 0.00 0.00 0.00 56 1011.1
20260508120105 47 287 1.7 7.8 0.00 0.00 0.00 58 1011.1
20260508114504 46 297 0.9 7.0 0.00 0.00 0.00 63 1011.1
20260508113006 45 286 0.0 3.5 0.00 0.00 0.00 64 1011.1
20260508111534 42 288 0.0 3.5 0.00 0.00 0.00 76 1011.0
20260508110030 40 295 0.0 0.0 0.00 0.00 0.00 84 1010.9
20260508104526 39 295 0.0 0.0 0.00 0.00 0.00 85 1010.6
20260508103033 38 295 0.0 0.0 0.00 0.01 0.00 85 1010.5
20260508101522 38 295 0.0 0.0 0.00 0.01 0.00 84 1010.4
20260508100025 39 295 0.0 0.0 0.00 0.01 0.00 85 1010.2
20260508094517 39 295 0.0 0.0 0.00 0.01 0.00 84 1010.1
20260508093016 39 295 0.0 0.0 0.00 0.07 0.00 83 1010.0
20260508091515 39 295 0.0 0.0 0.00 0.07 0.00 82 1009.9
20260508090020 38 295 0.0 0.0 0.00 0.07 0.00 83 1009.9
20260508084508 38 295 0.0 0.0 0.00 0.07 0.00 83 1009.9
20260508083009 38 295 0.0 0.0 0.00 0.19 0.00 84 1009.6
20260508081517 37 295 0.0 0.0 0.00 0.19 0.00 84 1009.9
20260508080005 37 295 0.0 0.0 0.00 0.19 0.00 84 1009.8
20260508074503 38 295 0.0 0.0 0.00 0.19 0.00 82 1009.4
20260508073100 38 295 0.0 0.0 0.00 0.21 0.00 81 1009.2
20260508071558 38 295 0.0 0.0 0.00 0.21 0.00 81 1008.8
20260508070056 38 295 0.0 0.0 0.00 0.21 0.00 80 1008.7
20260508064555 39 295 0.0 0.0 0.00 0.21 0.00 77 1008.6
20260508063103 42 295 0.0 4.3 0.00 0.21 0.00 78 1008.4
20260508061554 39 266 0.0 0.0 0.00 0.21 0.00 78 1008.3
20260508060052 39 266 0.0 0.0 0.00 0.21 0.00 74 1008.1
20260508054645 39 266 0.0 0.0 0.00 0.21 0.00 75 1008.5
20260508053044 39 266 0.0 0.0 0.00 0.21 0.00 75 1008.5
20260508051542 40 266 0.0 0.0 0.00 0.21 0.00 76 1008.6
20260508050039 40 266 0.0 0.0 0.00 0.21 0.00 73 1008.8
20260508044537 41 266 0.0 0.0 0.00 0.21 0.00 70 1008.9
20260508043009 41 266 0.0 0.0 0.00 0.24 0.00 70 1009.0
20260508041504 42 266 0.0 0.0 0.00 0.24 0.00 69 1009.0
20260508040031 42 266 0.0 0.0 0.00 0.24 0.00 68 1009.0
20260508034529 43 266 0.0 0.0 0.00 0.24 0.00 67 1009.0
20260508033057 44 266 0.0 0.0 0.00 0.28 0.00 63 1008.9
20260508031556 45 266 0.0 0.0 0.00 0.28 0.00 62 1008.9
20260508030037 49 266 0.0 0.0 0.00 0.28 0.00 55 1008.9
20260508024545 51 266 0.0 0.0 0.00 0.28 0.00 51 1009.0
20260508023033 51 266 0.0 0.0 0.00 0.28 0.00 52 1008.9
20260508021633 52 263 0.0 3.5 0.00 0.28 0.00 47 1009.0
20260508020031 52 274 1.7 6.1 0.00 0.28 0.00 46 1009.0
20260508014537 52 255 0.0 3.5 0.00 0.28 0.00 51 1009.0
20260508013028 52 258 0.0 0.0 0.00 0.28 0.00 45 1008.9
20260508011625 53 276 0.0 3.5 0.00 0.28 0.00 46 1008.5
20260508010033 54 283 0.9 7.0 0.00 0.28 0.00 48 1008.3
20260508004523 54 272 0.0 4.3 0.00 0.28 0.00 45 1008.0
20260508003021 55 276 0.0 9.6 0.00 0.28 0.00 47 1007.8
20260508001620 55 320 7.0 13.9 0.00 0.28 0.00 45 1007.6
20260508000022 55 288 8.7 13.0 0.00 0.28 0.00 42 1007.6
20260507234519 56 297 10.4 14.8 0.00 0.28 0.00 44 1007.5
20260507231513 57 262 8.7 16.5 0.00 0.31 0.00 46 1007.2
20260507230009 57 272 9.6 14.8 0.00 0.31 0.00 44 1007.2
20260507224508 57 308 7.8 16.5 0.00 0.31 0.00 43 1007.0
20260507223006 57 303 11.3 16.5 0.00 0.33 0.00 43 1006.8
20260507221510 57 307 11.3 18.2 0.00 0.33 0.00 45 1006.9
20260507220059 58 290 7.0 14.8 0.00 0.33 0.00 46 1006.9
20260507214605 58 311 9.6 14.8 0.00 0.33 0.00 47 1006.7
20260507213057 58 303 6.1 14.8 0.00 0.38 0.33 42 1006.6
20260507211559 58 259 10.4 16.5 0.00 0.38 0.33 44 1006.4
20260507210059 58 317 8.7 14.8 0.00 0.38 0.33 45 1006.3
20260507204551 58 307 13.9 18.2 0.00 0.38 0.33 45 1006.1
20260507203104 58 285 6.1 13.9 0.00 0.44 0.33 46 1006.3
20260507201558 58 274 9.6 14.8 0.00 0.44 0.33 43 1006.3
20260507200103 58 301 10.4 14.8 0.00 0.44 0.33 44 1006.2
20260507194547 59 297 9.6 16.5 0.00 0.44 0.33 41 1006.3
20260507193048 58 328 8.7 18.2 0.00 0.49 0.33 43 1006.4
20260507191544 57 326 11.3 17.4 0.00 0.49 0.33 45 1006.7
20260507190039 58 286 7.0 16.5 0.00 0.49 0.33 39 1006.8
20260507184541 57 292 10.4 16.5 0.00 0.49 0.33 46 1006.9
20260507183037 57 252 4.3 13.0 0.00 0.52 0.33 47 1007.1
20260507181537 57 319 6.1 13.9 0.00 0.52 0.33 43 1007.2
20260507180038 57 323 11.3 19.1 0.00 0.52 0.33 46 1007.2
20260507174536 57 312 8.7 14.8 0.00 0.52 0.33 42 1007.5
20260507173033 56 278 9.6 14.8 0.00 0.52 0.33 44 1007.5
20260507171530 56 303 12.2 16.5 0.00 0.52 0.33 44 1007.5
20260507170105 56 328 10.4 16.5 0.00 0.52 0.33 44 1007.5
20260507164604 55 308 12.2 17.4 0.00 0.52 0.33 45 1007.7
20260507163055 55 288 7.8 16.5 0.00 0.52 0.33 48 1008.0